Time,TemperatureF,DewpointF,PressureIn,WindDirection,WindDirectionDegrees,WindSpeedMPH,WindSpeedGustMPH,Humidity,HourlyPrecipIn,Conditions,Clouds,dailyrainin,SoftwareType,DateUTC
2013-11-25 00:02:00,28.8,-7.2,0.00,NW,317,17.0,17.0,20,-99.99,,---,-99.99,VWS V14.01,2013-11-25 08:02:00,
2013-11-25 00:07:00,28.9,-7.1,0.00,WNW,294,14.5,14.5,20,-99.99,,---,-99.99,VWS V14.01,2013-11-25 08:07:00,
2013-11-25 00:12:00,28.9,-7.1,0.00,NNW,328,13.2,14.5,20,-99.99,,---,-99.99,VWS V14.01,2013-11-25 08:12:00,
2013-11-25 00:17:00,28.8,-7.2,0.00,NNW,328,13.2,13.2,20,-99.99,,---,-99.99,VWS V14.01,2013-11-25 08:17:00,
2013-11-25 00:22:00,28.8,-7.2,0.00,WNW,298,15.0,15.0,20,-99.99,,---,-99.99,VWS V14.01,2013-11-25 08:22:00,
2013-11-25 00:27:00,28.8,-7.2,0.00,WNW,298,15.0,15.0,20,-99.99,,---,-99.99,VWS V14.01,2013-11-25 08:27:00,
2013-11-25 00:32:00,28.8,-7.2,0.00,NNE,13,17.0,17.0,20,-99.99,,---,-99.99,VWS V14.01,2013-11-25 08:32:00,
2013-11-25 00:37:00,28.8,-7.2,0.00,NNE,13,17.0,17.0,20,-99.99,,---,-99.99,VWS V14.01,2013-11-25 08:37:00,
2013-11-25 00:42:00,28.9,-7.1,0.00,WSW,252,11.0,11.0,20,-99.99,,---,-99.99,VWS V14.01,2013-11-25 08:42:00,
2013-11-25 00:47:00,28.9,-7.1,0.00,NW,320,17.9,17.9,20,-99.99,,---,-99.99,VWS V14.01,2013-11-25 08:47:00,
2013-11-25 00:52:00,29.1,-6.9,0.00,NW,320,17.9,17.9,20,-99.99,,---,-99.99,VWS V14.01,2013-11-25 08:52:00,
2013-11-25 00:57:00,29.1,-6.9,0.00,NW,319,11.0,11.0,20,-99.99,,---,-99.99,VWS V14.01,2013-11-25 08:57:00,
2013-11-25 01:02:00,29.1,-6.9,0.00,NW,319,11.0,11.0,20,-99.99,,---,-99.99,VWS V14.01,2013-11-25 09:02:00,
2013-11-25 01:07:00,29.1,-6.9,0.00,NNW,335,0.0,0.0,20,-99.99,,---,-99.99,VWS V14.01,2013-11-25 09:07:00,
2013-11-25 01:12:00,29.1,-6.9,0.00,NNW,335,0.0,0.0,20,-99.99,,---,-99.99,VWS V14.01,2013-11-25 09:12:00,
2013-11-25 01:17:00,29.3,-6.8,0.00,NW,312,18.3,18.3,20,-99.99,,---,-99.99,VWS V14.01,2013-11-25 09:17:00,
2013-11-25 01:22:00,29.3,-6.8,0.00,WNW,294,15.4,15.4,20,-99.99,,---,-99.99,VWS V14.01,2013-11-25 09:22:00,
2013-11-25 01:27:00,29.5,-6.6,0.00,WNW,294,15.4,15.4,20,-99.99,,---,-99.99,VWS V14.01,2013-11-25 09:27:00,
2013-11-25 01:32:00,29.5,-6.6,0.00,WNW,290,17.0,17.0,20,-99.99,,---,-99.99,VWS V14.01,2013-11-25 09:32:00,
2013-11-25 01:37:00,29.5,-6.6,0.00,WNW,290,17.0,17.0,20,-99.99,,---,-99.99,VWS V14.01,2013-11-25 09:37:00,
2013-11-25 01:42:00,29.5,-6.6,0.00,NW,310,19.7,19.7,20,-99.99,,---,-99.99,VWS V14.01,2013-11-25 09:42:00,
2013-11-25 01:47:00,29.5,-6.6,0.00,WNW,286,21.9,21.9,20,-99.99,,---,-99.99,VWS V14.01,2013-11-25 09:47:00,
2013-11-25 01:52:00,30.2,-6.0,0.00,WNW,286,21.9,21.9,20,-99.99,,---,-99.99,VWS V14.01,2013-11-25 09:52:00,
2013-11-25 01:57:00,30.2,-6.0,0.00,NW,323,23.7,23.7,20,-99.99,,---,-99.99,VWS V14.01,2013-11-25 09:57:00,
2013-11-25 02:02:00,30.7,-5.6,0.00,NW,323,23.7,23.7,20,-99.99,,---,-99.99,VWS V14.01,2013-11-25 10:02:00,
2013-11-25 02:07:00,31.1,-5.3,0.00,NW,307,18.8,18.8,20,-99.99,,---,-99.99,VWS V14.01,2013-11-25 10:07:00,
2013-11-25 02:12:00,31.1,-5.3,0.00,NW,307,18.8,18.8,20,-99.99,,---,-99.99,VWS V14.01,2013-11-25 10:12:00,
2013-11-25 02:17:00,31.1,-5.3,0.00,WNW,287,16.8,16.8,20,-99.99,,---,-99.99,VWS V14.01,2013-11-25 10:17:00,
2013-11-25 02:22:00,31.1,-5.3,0.00,WNW,286,21.9,21.9,20,-99.99,,---,-99.99,VWS V14.01,2013-11-25 10:22:00,
2013-11-25 02:27:00,31.5,-5.0,0.00,WNW,286,21.9,21.9,20,-99.99,,---,-99.99,VWS V14.01,2013-11-25 10:27:00,
2013-11-25 02:32:00,31.8,-4.7,0.00,NW,304,20.6,20.6,20,-99.99,,---,-99.99,VWS V14.01,2013-11-25 10:32:00,
2013-11-25 02:37:00,31.8,-4.7,0.00,NW,304,20.6,20.6,20,-99.99,,---,-99.99,VWS V14.01,2013-11-25 10:37:00,
2013-11-25 02:42:00,32.2,-4.4,0.00,WNW,299,19.7,19.7,20,-99.99,,---,-99.99,VWS V14.01,2013-11-25 10:42:00,
2013-11-25 02:47:00,32.0,-4.5,0.00,WNW,299,19.7,19.7,20,-99.99,,---,-99.99,VWS V14.01,2013-11-25 10:47:00,
2013-11-25 02:52:00,32.2,-4.4,0.00,NW,311,18.3,18.3,20,-99.99,,---,-99.99,VWS V14.01,2013-11-25 10:52:00,
2013-11-25 02:57:00,32.2,-4.4,0.00,WNW,294,16.8,16.8,20,-99.99,,---,-99.99,VWS V14.01,2013-11-25 10:57:00,
2013-11-25 03:02:00,32.0,-4.5,0.00,WNW,294,16.8,16.8,20,-99.99,,---,-99.99,VWS V14.01,2013-11-25 11:02:00,
2013-11-25 03:07:00,32.2,-4.4,0.00,NW,307,17.4,17.4,20,-99.99,,---,-99.99,VWS V14.01,2013-11-25 11:07:00,
2013-11-25 03:12:00,32.2,-4.4,0.00,NW,307,17.4,17.4,20,-99.99,,---,-99.99,VWS V14.01,2013-11-25 11:12:00,
2013-11-25 03:17:00,32.2,-4.4,0.00,WNW,293,19.2,19.2,20,-99.99,,---,-99.99,VWS V14.01,2013-11-25 11:17:00,
2013-11-25 03:22:00,32.2,-4.4,0.00,WNW,292,21.0,21.0,20,-99.99,,---,-99.99,VWS V14.01,2013-11-25 11:22:00,
2013-11-25 03:27:00,32.2,-4.4,0.00,WNW,292,21.0,21.0,20,-99.99,,---,-99.99,VWS V14.01,2013-11-25 11:27:00,
2013-11-25 03:32:00,32.2,-4.4,0.00,WNW,300,17.4,17.4,20,-99.99,,---,-99.99,VWS V14.01,2013-11-25 11:32:00,
2013-11-25 03:37:00,32.2,-4.4,0.00,WNW,300,17.4,17.4,20,-99.99,,---,-99.99,VWS V14.01,2013-11-25 11:37:00,
2013-11-25 03:42:00,32.2,-4.4,0.00,NW,317,17.4,17.4,20,-99.99,,---,-99.99,VWS V14.01,2013-11-25 11:42:00,
2013-11-25 03:47:00,32.2,-4.4,0.00,NW,317,17.4,17.4,20,-99.99,,---,-99.99,VWS V14.01,2013-11-25 11:47:00,
2013-11-25 03:52:00,32.0,-4.5,0.00,WNW,301,17.4,17.4,20,-99.99,,---,-99.99,VWS V14.01,2013-11-25 11:52:00,
2013-11-25 03:57:00,32.2,-4.4,0.00,North,353,19.7,19.7,20,-99.99,,---,-99.99,VWS V14.01,2013-11-25 11:57:00,
2013-11-25 04:02:00,32.2,-4.4,0.00,North,353,19.7,19.7,20,-99.99,,---,-99.99,VWS V14.01,2013-11-25 12:02:00,
2013-11-25 04:07:00,32.2,-4.4,0.00,WNW,303,16.3,16.3,20,-99.99,,---,-99.99,VWS V14.01,2013-11-25 12:07:00,
2013-11-25 04:12:00,32.2,-4.4,0.00,WNW,303,16.3,16.3,20,-99.99,,---,-99.99,VWS V14.01,2013-11-25 12:12:00,
2013-11-25 04:17:00,32.2,-4.4,0.00,NW,306,17.4,17.4,20,-99.99,,---,-99.99,VWS V14.01,2013-11-25 12:17:00,
2013-11-25 04:22:00,32.2,-4.4,0.00,NW,306,17.4,17.4,20,-99.99,,---,-99.99,VWS V14.01,2013-11-25 12:22:00,
2013-11-25 04:27:00,32.0,-4.5,0.00,NW,317,18.3,18.3,20,-99.99,,---,-99.99,VWS V14.01,2013-11-25 12:27:00,
2013-11-25 04:32:00,32.0,-4.5,0.00,NW,324,17.4,17.4,20,-99.99,,---,-99.99,VWS V14.01,2013-11-25 12:32:00,
2013-11-25 04:37:00,32.2,-4.4,0.00,NW,317,22.4,22.4,20,-99.99,,---,-99.99,VWS V14.01,2013-11-25 12:37:00,
2013-11-25 04:42:00,32.4,-4.2,0.00,NW,317,22.4,22.4,20,-99.99,,---,-99.99,VWS V14.01,2013-11-25 12:42:00,
2013-11-25 04:47:00,32.4,-4.2,0.00,NW,317,22.4,22.4,20,-99.99,,---,-99.99,VWS V14.01,2013-11-25 12:47:00,
2013-11-25 04:52:00,32.4,-4.2,0.00,NW,313,20.1,20.1,20,-99.99,,---,-99.99,VWS V14.01,2013-11-25 12:52:00,
2013-11-25 04:57:00,32.4,-4.2,0.00,WNW,284,22.8,22.8,20,-99.99,,---,-99.99,VWS V14.01,2013-11-25 12:57:00,
2013-11-25 05:02:00,32.5,-4.1,0.00,WNW,294,23.3,23.3,20,-99.99,,---,-99.99,VWS V14.01,2013-11-25 13:02:00,
2013-11-25 05:07:00,32.5,-4.1,0.00,WNW,296,23.3,23.3,20,-99.99,,---,-99.99,VWS V14.01,2013-11-25 13:07:00,
2013-11-25 05:12:00,32.5,-4.1,0.00,WNW,296,23.3,23.3,20,-99.99,,---,-99.99,VWS V14.01,2013-11-25 13:12:00,
2013-11-25 05:17:00,32.7,-3.9,0.00,West,281,22.4,22.4,20,-99.99,,---,-99.99,VWS V14.01,2013-11-25 13:17:00,
2013-11-25 05:22:00,32.7,-3.9,0.00,West,281,22.4,22.4,20,-99.99,,---,-99.99,VWS V14.01,2013-11-25 13:22:00,
2013-11-25 05:27:00,32.7,-3.9,0.00,WNW,292,24.2,24.2,20,-99.99,,---,-99.99,VWS V14.01,2013-11-25 13:27:00,
2013-11-25 05:32:00,32.7,-3.9,0.00,WNW,299,22.8,22.8,20,-99.99,,---,-99.99,VWS V14.01,2013-11-25 13:32:00,
2013-11-25 05:37:00,32.7,-3.9,0.00,WNW,299,22.8,22.8,20,-99.99,,---,-99.99,VWS V14.01,2013-11-25 13:37:00,
2013-11-25 05:42:00,32.7,-3.9,0.00,WNW,290,23.7,23.7,20,-99.99,,---,-99.99,VWS V14.01,2013-11-25 13:42:00,
2013-11-25 05:47:00,32.7,-3.9,0.00,WNW,290,23.7,23.7,20,-99.99,,---,-99.99,VWS V14.01,2013-11-25 13:47:00,
2013-11-25 05:52:00,32.7,-3.9,0.00,WNW,290,23.7,23.7,20,-99.99,,---,-99.99,VWS V14.01,2013-11-25 13:52:00,
2013-11-25 05:57:00,32.7,-3.9,0.00,WNW,290,23.7,23.7,20,-99.99,,---,-99.99,VWS V14.01,2013-11-25 13:57:00,
2013-11-25 06:02:00,32.9,-3.8,0.00,WNW,290,23.7,23.7,20,-99.99,,---,-99.99,VWS V14.01,2013-11-25 14:02:00,
2013-11-25 06:07:00,32.9,-3.8,0.00,WNW,290,23.7,23.7,20,-99.99,,---,-99.99,VWS V14.01,2013-11-25 14:07:00,
2013-11-25 06:12:00,32.9,-3.8,0.00,WNW,290,23.7,23.7,20,-99.99,,---,-99.99,VWS V14.01,2013-11-25 14:12:00,
2013-11-25 06:17:00,32.5,-4.1,0.00,WNW,290,23.7,23.7,20,-99.99,,---,-99.99,VWS V14.01,2013-11-25 14:17:00,
2013-11-25 06:22:00,32.5,-4.1,0.00,WNW,290,23.7,23.7,20,-99.99,,---,-99.99,VWS V14.01,2013-11-25 14:22:00,
2013-11-25 06:27:00,32.5,-4.1,0.00,WNW,290,23.7,23.7,20,-99.99,,---,-99.99,VWS V14.01,2013-11-25 14:27:00,
2013-11-25 06:32:00,32.5,-4.1,0.00,WNW,290,23.7,23.7,20,-99.99,,---,-99.99,VWS V14.01,2013-11-25 14:32:00,
2013-11-25 06:37:00,32.5,-4.1,0.00,West,281,24.2,24.2,20,-99.99,,---,-99.99,VWS V14.01,2013-11-25 14:37:00,
2013-11-25 06:42:00,32.5,-4.1,0.00,West,281,24.2,24.2,20,-99.99,,---,-99.99,VWS V14.01,2013-11-25 14:42:00,
2013-11-25 06:47:00,32.7,-3.9,0.00,West,281,24.2,24.2,20,-99.99,,---,-99.99,VWS V14.01,2013-11-25 14:47:00,
2013-11-25 06:52:00,32.7,-3.9,0.00,West,281,24.2,24.2,20,-99.99,,---,-99.99,VWS V14.01,2013-11-25 14:52:00,
2013-11-25 06:57:00,32.7,-3.9,0.00,West,281,24.2,24.2,20,-99.99,,---,-99.99,VWS V14.01,2013-11-25 14:57:00,
2013-11-25 07:02:00,33.1,-3.6,0.00,West,281,24.2,24.2,20,-99.99,,---,-99.99,VWS V14.01,2013-11-25 15:02:00,
2013-11-25 07:07:00,33.1,-3.6,0.00,West,281,24.2,24.2,20,-99.99,,---,-99.99,VWS V14.01,2013-11-25 15:07:00,
2013-11-25 07:12:00,33.1,-3.6,0.00,WNW,287,18.3,18.3,20,-99.99,,---,-99.99,VWS V14.01,2013-11-25 15:12:00,
2013-11-25 07:17:00,33.3,-3.5,0.00,WNW,287,18.3,18.3,20,-99.99,,---,-99.99,VWS V14.01,2013-11-25 15:17:00,
2013-11-25 07:22:00,33.3,-3.5,0.00,WNW,287,18.3,18.3,20,-99.99,,---,-99.99,VWS V14.01,2013-11-25 15:22:00,
2013-11-25 07:27:00,33.8,-3.0,0.00,WNW,287,18.3,18.3,20,-99.99,,---,-99.99,VWS V14.01,2013-11-25 15:27:00,
2013-11-25 07:32:00,33.8,-3.0,0.00,WNW,287,18.3,18.3,20,-99.99,,---,-99.99,VWS V14.01,2013-11-25 15:32:00,
2013-11-25 07:37:00,34.0,-2.9,0.00,WNW,287,18.3,18.3,20,-99.99,,---,-99.99,VWS V14.01,2013-11-25 15:37:00,
2013-11-25 07:42:00,34.2,-2.7,0.00,WNW,292,18.8,18.8,20,-99.99,,---,-99.99,VWS V14.01,2013-11-25 15:42:00,
2013-11-25 07:47:00,34.2,-2.7,0.00,WNW,292,18.8,18.8,20,-99.99,,---,-99.99,VWS V14.01,2013-11-25 15:47:00,
2013-11-25 07:52:00,34.3,-2.6,0.00,WNW,292,18.8,18.8,20,-99.99,,---,-99.99,VWS V14.01,2013-11-25 15:52:00,
2013-11-25 07:57:00,34.3,-2.6,0.00,NW,308,17.4,17.4,20,-99.99,,---,-99.99,VWS V14.01,2013-11-25 15:57:00,
2013-11-25 08:02:00,34.5,-2.4,0.00,NW,308,17.4,17.4,20,-99.99,,---,-99.99,VWS V14.01,2013-11-25 16:02:00,
2013-11-25 08:07:00,34.5,-2.4,0.00,NW,323,0.0,17.4,20,-99.99,,---,-99.99,VWS V14.01,2013-11-25 16:07:00,
2013-11-25 08:12:00,34.9,-2.1,0.00,NW,323,0.0,0.0,20,-99.99,,---,-99.99,VWS V14.01,2013-11-25 16:12:00,
2013-11-25 08:17:00,35.1,-2.0,0.00,NW,323,0.0,0.0,20,-99.99,,---,-99.99,VWS V14.01,2013-11-25 16:17:00,
2013-11-25 08:22:00,35.2,-1.8,0.00,NW,307,0.0,0.0,20,-99.99,,---,-99.99,VWS V14.01,2013-11-25 16:22:00,
2013-11-25 08:28:00,35.6,-2.6,0.00,NW,307,0.0,0.0,19,-99.99,,---,-99.99,VWS V14.01,2013-11-25 16:28:00,
2013-11-25 08:33:00,35.6,-2.6,0.00,NW,307,0.0,0.0,19,-99.99,,---,-99.99,VWS V14.01,2013-11-25 16:33:00,
2013-11-25 08:38:00,36.1,-2.1,0.00,NW,307,0.0,0.0,19,-99.99,,---,-99.99,VWS V14.01,2013-11-25 16:38:00,
2013-11-25 08:43:00,36.1,-2.1,0.00,NW,307,0.0,0.0,19,-99.99,,---,-99.99,VWS V14.01,2013-11-25 16:43:00,
2013-11-25 08:48:00,36.3,-2.0,0.00,NW,307,0.0,0.0,19,-99.99,,---,-99.99,VWS V14.01,2013-11-25 16:48:00,
2013-11-25 08:53:00,36.7,-1.7,0.00,NW,307,0.0,0.0,19,-99.99,,---,-99.99,VWS V14.01,2013-11-25 16:53:00,
2013-11-25 08:58:00,36.9,1.6,0.00,NW,307,0.0,0.0,22,-99.99,,---,-99.99,VWS V14.01,2013-11-25 16:58:00,
2013-11-25 09:03:00,36.9,1.6,0.00,NW,307,0.0,0.0,22,-99.99,,---,-99.99,VWS V14.01,2013-11-25 17:03:00,
2013-11-25 09:08:00,36.9,1.6,0.00,NW,307,0.0,0.0,22,-99.99,,---,-99.99,VWS V14.01,2013-11-25 17:08:00,
2013-11-25 09:13:00,37.6,1.2,0.00,NW,307,0.0,0.0,21,-99.99,,---,-99.99,VWS V14.01,2013-11-25 17:13:00,
2013-11-25 09:18:00,37.6,1.2,0.00,NNW,343,0.0,0.0,21,-99.99,,---,-99.99,VWS V14.01,2013-11-25 17:18:00,
2013-11-25 09:23:00,37.9,1.5,0.00,NNW,343,0.0,0.0,21,-99.99,,---,-99.99,VWS V14.01,2013-11-25 17:23:00,
2013-11-25 09:28:00,37.9,1.5,0.00,West,274,0.0,0.0,21,-99.99,,---,-99.99,VWS V14.01,2013-11-25 17:28:00,
2013-11-25 09:33:00,39.0,2.4,0.00,NNW,329,0.0,0.0,21,-99.99,,---,-99.99,VWS V14.01,2013-11-25 17:33:00,
2013-11-25 09:38:00,39.0,2.4,0.00,NNW,329,0.0,0.0,21,-99.99,,---,-99.99,VWS V14.01,2013-11-25 17:38:00,
2013-11-25 09:43:00,39.0,2.4,0.00,NW,323,0.0,0.0,21,-99.99,,---,-99.99,VWS V14.01,2013-11-25 17:43:00,
2013-11-25 09:48:00,39.0,2.4,0.00,NNW,337,17.4,17.4,21,-99.99,,---,-99.99,VWS V14.01,2013-11-25 17:48:00,
2013-11-25 09:53:00,39.0,2.4,0.00,NNW,333,0.0,17.4,21,-99.99,,---,-99.99,VWS V14.01,2013-11-25 17:53:00,
2013-11-25 09:58:00,39.0,2.4,0.00,WNW,293,12.8,12.8,21,-99.99,,---,-99.99,VWS V14.01,2013-11-25 17:58:00,
2013-11-25 10:03:00,39.0,2.4,0.00,NNW,346,0.0,0.0,21,-99.99,,---,-99.99,VWS V14.01,2013-11-25 18:03:00,
2013-11-25 10:08:00,40.6,3.8,0.00,SSW,196,0.0,0.0,21,-99.99,,---,-99.99,VWS V14.01,2013-11-25 18:08:00,
2013-11-25 10:13:00,40.6,3.8,0.00,SSW,196,0.0,0.0,21,-99.99,,---,-99.99,VWS V14.01,2013-11-25 18:13:00,
2013-11-25 10:18:00,40.6,3.8,0.00,NNW,343,17.0,17.0,21,-99.99,,---,-99.99,VWS V14.01,2013-11-25 18:18:00,
2013-11-25 10:23:00,40.6,3.8,0.00,NNW,330,0.0,0.0,21,-99.99,,---,-99.99,VWS V14.01,2013-11-25 18:23:00,
2013-11-25 10:28:00,40.6,3.8,0.00,North,0,0.0,0.0,21,-99.99,,---,-99.99,VWS V14.01,2013-11-25 18:28:00,
2013-11-25 10:33:00,40.6,3.8,0.00,North,353,0.0,0.0,21,-99.99,,---,-99.99,VWS V14.01,2013-11-25 18:33:00,
2013-11-25 10:38:00,40.6,3.8,0.00,NNW,342,0.0,0.0,21,-99.99,,---,-99.99,VWS V14.01,2013-11-25 18:38:00,
2013-11-25 10:43:00,40.6,3.8,0.00,NNW,345,0.0,0.0,21,-99.99,,---,-99.99,VWS V14.01,2013-11-25 18:43:00,
2013-11-25 10:48:00,42.4,5.3,0.00,NNW,345,0.0,0.0,21,-99.99,,---,-99.99,VWS V14.01,2013-11-25 18:48:00,
2013-11-25 10:53:00,42.4,5.3,0.00,North,0,0.0,0.0,21,-99.99,,---,-99.99,VWS V14.01,2013-11-25 18:53:00,
2013-11-25 10:58:00,42.4,5.3,0.00,NNW,342,0.0,0.0,21,-99.99,,---,-99.99,VWS V14.01,2013-11-25 18:58:00,
2013-11-25 11:03:00,42.4,5.3,0.00,North,353,0.0,0.0,21,-99.99,,---,-99.99,VWS V14.01,2013-11-25 19:03:00,
2013-11-25 11:08:00,42.4,5.3,0.00,North,353,0.0,0.0,21,-99.99,,---,-99.99,VWS V14.01,2013-11-25 19:08:00,
2013-11-25 11:13:00,42.4,5.3,0.00,North,0,0.0,0.0,21,-99.99,,---,-99.99,VWS V14.01,2013-11-25 19:13:00,
2013-11-25 11:18:00,42.4,5.3,0.00,North,0,0.0,0.0,21,-99.99,,---,-99.99,VWS V14.01,2013-11-25 19:18:00,
2013-11-25 11:23:00,43.0,4.7,0.00,North,3,0.0,0.0,20,-99.99,,---,-99.99,VWS V14.01,2013-11-25 19:23:00,
2013-11-25 11:28:00,43.0,4.7,0.00,North,0,0.0,0.0,20,-99.99,,---,-99.99,VWS V14.01,2013-11-25 19:28:00,
2013-11-25 11:33:00,43.0,4.7,0.00,West,272,0.0,0.0,20,-99.99,,---,-99.99,VWS V14.01,2013-11-25 19:33:00,
2013-11-25 11:38:00,43.0,4.7,0.00,NNW,344,0.0,0.0,20,-99.99,,---,-99.99,VWS V14.01,2013-11-25 19:38:00,
2013-11-25 11:43:00,43.0,4.7,0.00,North,349,0.0,0.0,20,-99.99,,---,-99.99,VWS V14.01,2013-11-25 19:43:00,
2013-11-25 11:48:00,43.7,5.3,0.00,NNW,334,0.0,0.0,20,-99.99,,---,-99.99,VWS V14.01,2013-11-25 19:48:00,
2013-11-25 11:53:00,43.9,5.4,0.00,NNW,342,0.0,0.0,20,-99.99,,---,-99.99,VWS V14.01,2013-11-25 19:53:00,
2013-11-25 11:58:00,43.9,5.4,0.00,NNW,342,0.0,0.0,20,-99.99,,---,-99.99,VWS V14.01,2013-11-25 19:58:00,
2013-11-25 12:03:00,44.6,6.0,0.00,NNW,341,0.0,0.0,20,-99.99,,---,-99.99,VWS V14.01,2013-11-25 20:03:00,
2013-11-25 12:08:00,44.6,6.0,0.00,North,0,0.0,0.0,20,-99.99,,---,-99.99,VWS V14.01,2013-11-25 20:08:00,
2013-11-25 12:13:00,44.1,5.6,0.00,NNW,342,0.0,0.0,20,-99.99,,---,-99.99,VWS V14.01,2013-11-25 20:13:00,
2013-11-25 12:18:00,44.1,5.6,0.00,NNW,338,0.0,0.0,20,-99.99,,---,-99.99,VWS V14.01,2013-11-25 20:18:00,
2013-11-25 12:23:00,44.1,5.6,0.00,North,353,0.0,0.0,20,-99.99,,---,-99.99,VWS V14.01,2013-11-25 20:23:00,
2013-11-25 12:28:00,45.1,6.5,0.00,NNW,337,0.0,0.0,20,-99.99,,---,-99.99,VWS V14.01,2013-11-25 20:28:00,
2013-11-25 12:33:00,45.1,6.5,0.00,NNW,337,0.0,0.0,20,-99.99,,---,-99.99,VWS V14.01,2013-11-25 20:33:00,
2013-11-25 12:38:00,45.1,6.5,0.00,North,357,0.0,0.0,20,-99.99,,---,-99.99,VWS V14.01,2013-11-25 20:38:00,
2013-11-25 12:43:00,45.1,6.5,0.00,North,353,0.0,0.0,20,-99.99,,---,-99.99,VWS V14.01,2013-11-25 20:43:00,
2013-11-25 12:48:00,45.1,6.5,0.00,NNW,340,0.0,0.0,20,-99.99,,---,-99.99,VWS V14.01,2013-11-25 20:48:00,
2013-11-25 12:53:00,45.5,6.8,0.00,North,353,0.0,0.0,20,-99.99,,---,-99.99,VWS V14.01,2013-11-25 20:53:00,
2013-11-25 12:58:00,45.5,6.8,0.00,NNW,341,0.0,0.0,20,-99.99,,---,-99.99,VWS V14.01,2013-11-25 20:58:00,
2013-11-25 13:03:00,45.3,6.6,0.00,North,357,0.0,0.0,20,-99.99,,---,-99.99,VWS V14.01,2013-11-25 21:03:00,
2013-11-25 13:08:00,45.0,6.3,0.00,West,278,0.0,0.0,20,-99.99,,---,-99.99,VWS V14.01,2013-11-25 21:08:00,
2013-11-25 13:13:00,44.6,6.0,0.00,North,0,0.0,0.0,20,-99.99,,---,-99.99,VWS V14.01,2013-11-25 21:13:00,
2013-11-25 13:18:00,44.6,6.0,0.00,NW,310,0.0,0.0,20,-99.99,,---,-99.99,VWS V14.01,2013-11-25 21:18:00,
2013-11-25 13:23:00,43.5,5.1,0.00,NNW,340,0.0,0.0,20,-99.99,,---,-99.99,VWS V14.01,2013-11-25 21:23:00,
2013-11-25 13:28:00,43.5,5.1,0.00,NW,309,0.0,0.0,20,-99.99,,---,-99.99,VWS V14.01,2013-11-25 21:28:00,
2013-11-25 13:33:00,43.5,5.1,0.00,NW,320,0.0,0.0,20,-99.99,,---,-99.99,VWS V14.01,2013-11-25 21:33:00,
2013-11-25 13:38:00,43.3,5.0,0.00,NNW,338,0.0,0.0,20,-99.99,,---,-99.99,VWS V14.01,2013-11-25 21:38:00,
2013-11-25 13:43:00,43.3,5.0,0.00,NNW,336,0.0,0.0,20,-99.99,,---,-99.99,VWS V14.01,2013-11-25 21:43:00,
2013-11-25 13:48:00,43.2,4.8,0.00,North,353,0.0,0.0,20,-99.99,,---,-99.99,VWS V14.01,2013-11-25 21:48:00,
2013-11-25 13:53:00,43.3,5.0,0.00,North,5,0.0,0.0,20,-99.99,,---,-99.99,VWS V14.01,2013-11-25 21:53:00,
2013-11-25 13:58:00,43.3,5.0,0.00,North,0,0.0,0.0,20,-99.99,,---,-99.99,VWS V14.01,2013-11-25 21:58:00,
2013-11-25 14:03:00,43.0,4.7,0.00,North,349,0.0,0.0,20,-99.99,,---,-99.99,VWS V14.01,2013-11-25 22:03:00,
2013-11-25 14:08:00,43.0,4.7,0.00,WNW,283,0.0,0.0,20,-99.99,,---,-99.99,VWS V14.01,2013-11-25 22:08:00,
2013-11-25 14:13:00,43.0,4.7,0.00,NW,319,0.0,0.0,20,-99.99,,---,-99.99,VWS V14.01,2013-11-25 22:13:00,
2013-11-25 14:18:00,43.0,4.7,0.00,North,353,0.0,0.0,20,-99.99,,---,-99.99,VWS V14.01,2013-11-25 22:18:00,
2013-11-25 14:23:00,43.3,5.0,0.00,North,2,0.0,0.0,20,-99.99,,---,-99.99,VWS V14.01,2013-11-25 22:23:00,
2013-11-25 14:28:00,43.0,4.7,0.00,NNW,340,0.0,0.0,20,-99.99,,---,-99.99,VWS V14.01,2013-11-25 22:28:00,
2013-11-25 14:33:00,43.0,4.7,0.00,North,357,0.0,0.0,20,-99.99,,---,-99.99,VWS V14.01,2013-11-25 22:33:00,
2013-11-25 14:38:00,42.8,4.5,0.00,NNW,335,0.0,0.0,20,-99.99,,---,-99.99,VWS V14.01,2013-11-25 22:38:00,
2013-11-25 14:43:00,42.8,4.5,0.00,NNW,346,0.0,0.0,20,-99.99,,---,-99.99,VWS V14.01,2013-11-25 22:43:00,
2013-11-25 14:48:00,43.0,4.7,0.00,North,353,0.0,0.0,20,-99.99,,---,-99.99,VWS V14.01,2013-11-25 22:48:00,
2013-11-25 14:53:00,43.0,4.7,0.00,NNW,346,0.0,0.0,20,-99.99,,---,-99.99,VWS V14.01,2013-11-25 22:53:00,
2013-11-25 14:58:00,42.8,4.5,0.00,North,353,0.0,0.0,20,-99.99,,---,-99.99,VWS V14.01,2013-11-25 22:58:00,
2013-11-25 15:03:00,42.6,5.4,0.00,North,353,0.0,0.0,21,-99.99,,---,-99.99,VWS V14.01,2013-11-25 23:03:00,
2013-11-25 15:08:00,42.6,5.4,0.00,NNW,345,0.0,0.0,21,-99.99,,---,-99.99,VWS V14.01,2013-11-25 23:08:00,
2013-11-25 15:13:00,42.3,5.1,0.00,NNW,343,0.0,0.0,21,-99.99,,---,-99.99,VWS V14.01,2013-11-25 23:13:00,
2013-11-25 15:18:00,42.3,5.1,0.00,NNW,337,0.0,0.0,21,-99.99,,---,-99.99,VWS V14.01,2013-11-25 23:18:00,
2013-11-25 15:23:00,41.9,4.8,0.00,North,350,0.0,0.0,21,-99.99,,---,-99.99,VWS V14.01,2013-11-25 23:23:00,
2013-11-25 15:28:00,41.9,4.8,0.00,NNW,333,0.0,0.0,21,-99.99,,---,-99.99,VWS V14.01,2013-11-25 23:28:00,
2013-11-25 15:33:00,41.5,4.5,0.00,NNW,343,0.0,0.0,21,-99.99,,---,-99.99,VWS V14.01,2013-11-25 23:33:00,
2013-11-25 15:38:00,41.4,4.4,0.00,NNW,346,0.0,0.0,21,-99.99,,---,-99.99,VWS V14.01,2013-11-25 23:38:00,
2013-11-25 15:43:00,41.2,4.2,0.00,NNW,332,0.0,0.0,21,-99.99,,---,-99.99,VWS V14.01,2013-11-25 23:43:00,
2013-11-25 15:48:00,41.2,4.2,0.00,NNW,332,0.0,0.0,21,-99.99,,---,-99.99,VWS V14.01,2013-11-25 23:48:00,
2013-11-25 15:53:00,41.2,4.2,0.00,NNW,340,0.0,0.0,21,-99.99,,---,-99.99,VWS V14.01,2013-11-25 23:53:00,
2013-11-25 15:58:00,40.8,3.9,0.00,NW,305,0.0,0.0,21,-99.99,,---,-99.99,VWS V14.01,2013-11-25 23:58:00,
2013-11-25 16:03:00,40.3,3.5,0.00,NNW,340,0.0,0.0,21,-99.99,,---,-99.99,VWS V14.01,2013-11-26 00:03:00,
2013-11-25 16:08:00,40.3,3.5,0.00,NW,318,0.0,0.0,21,-99.99,,---,-99.99,VWS V14.01,2013-11-26 00:08:00,
2013-11-25 16:13:00,39.9,3.2,0.00,North,0,0.0,0.0,21,-99.99,,---,-99.99,VWS V14.01,2013-11-26 00:13:00,
2013-11-25 16:18:00,39.6,2.9,0.00,NW,307,0.0,0.0,21,-99.99,,---,-99.99,VWS V14.01,2013-11-26 00:18:00,
2013-11-25 16:23:00,39.6,2.9,0.00,NW,307,0.0,0.0,21,-99.99,,---,-99.99,VWS V14.01,2013-11-26 00:23:00,
2013-11-25 16:28:00,39.7,3.0,0.00,NNW,340,0.0,0.0,21,-99.99,,---,-99.99,VWS V14.01,2013-11-26 00:28:00,
2013-11-25 16:33:00,39.7,3.0,0.00,North,0,0.0,0.0,21,-99.99,,---,-99.99,VWS V14.01,2013-11-26 00:33:00,
2013-11-25 16:38:00,39.7,3.0,0.00,West,276,0.0,0.0,21,-99.99,,---,-99.99,VWS V14.01,2013-11-26 00:38:00,
2013-11-25 16:43:00,39.7,3.0,0.00,North,357,0.0,0.0,21,-99.99,,---,-99.99,VWS V14.01,2013-11-26 00:43:00,
2013-11-25 16:48:00,39.9,3.2,0.00,North,357,0.0,0.0,21,-99.99,,---,-99.99,VWS V14.01,2013-11-26 00:48:00,
2013-11-25 16:53:00,39.9,3.2,0.00,NNW,348,0.0,0.0,21,-99.99,,---,-99.99,VWS V14.01,2013-11-26 00:53:00,
2013-11-25 16:58:00,39.9,3.2,0.00,NNW,348,0.0,0.0,21,-99.99,,---,-99.99,VWS V14.01,2013-11-26 00:58:00,
2013-11-25 17:03:00,40.3,3.5,0.00,WNW,300,11.0,11.0,21,-99.99,,---,-99.99,VWS V14.01,2013-11-26 01:03:00,
2013-11-25 17:08:00,40.3,3.5,0.00,WNW,300,11.0,11.0,21,-99.99,,---,-99.99,VWS V14.01,2013-11-26 01:08:00,
2013-11-25 17:13:00,39.9,3.2,0.00,North,0,0.0,0.0,21,-99.99,,---,-99.99,VWS V14.01,2013-11-26 01:13:00,
2013-11-25 17:18:00,39.9,3.2,0.00,NNW,335,0.0,0.0,21,-99.99,,---,-99.99,VWS V14.01,2013-11-26 01:18:00,
2013-11-25 17:23:00,40.3,3.5,0.00,NNW,335,0.0,0.0,21,-99.99,,---,-99.99,VWS V14.01,2013-11-26 01:23:00,
2013-11-25 17:28:00,40.1,3.3,0.00,WNW,295,0.0,0.0,21,-99.99,,---,-99.99,VWS V14.01,2013-11-26 01:28:00,
2013-11-25 17:33:00,40.1,3.3,0.00,WNW,295,0.0,0.0,21,-99.99,,---,-99.99,VWS V14.01,2013-11-26 01:33:00,
2013-11-25 17:38:00,39.7,3.0,0.00,NW,317,12.8,12.8,21,-99.99,,---,-99.99,VWS V14.01,2013-11-26 01:38:00,
2013-11-25 17:44:00,39.7,3.0,0.00,NW,317,12.8,12.8,21,-99.99,,---,-99.99,VWS V14.01,2013-11-26 01:44:00,
2013-11-25 17:49:00,39.6,2.9,0.00,NW,319,0.0,0.0,21,-99.99,,---,-99.99,VWS V14.01,2013-11-26 01:49:00,
2013-11-25 17:54:00,39.6,2.9,0.00,West,272,0.0,0.0,21,-99.99,,---,-99.99,VWS V14.01,2013-11-26 01:54:00,
2013-11-25 17:59:00,39.7,3.0,0.00,West,272,0.0,0.0,21,-99.99,,---,-99.99,VWS V14.01,2013-11-26 01:59:00,
2013-11-25 18:04:00,39.9,3.2,0.00,WNW,294,0.0,0.0,21,-99.99,,---,-99.99,VWS V14.01,2013-11-26 02:04:00,
2013-11-25 18:09:00,39.9,3.2,0.00,WNW,294,0.0,0.0,21,-99.99,,---,-99.99,VWS V14.01,2013-11-26 02:09:00,
2013-11-25 18:14:00,39.9,3.2,0.00,NNW,333,0.0,0.0,21,-99.99,,---,-99.99,VWS V14.01,2013-11-26 02:14:00,
2013-11-25 18:19:00,39.9,3.2,0.00,NW,321,13.2,13.2,21,-99.99,,---,-99.99,VWS V14.01,2013-11-26 02:19:00,
2013-11-25 18:24:00,39.9,3.2,0.00,NW,321,13.2,13.2,21,-99.99,,---,-99.99,VWS V14.01,2013-11-26 02:24:00,
2013-11-25 18:29:00,39.9,3.2,0.00,WNW,297,0.0,0.0,21,-99.99,,---,-99.99,VWS V14.01,2013-11-26 02:29:00,
2013-11-25 18:34:00,39.9,3.2,0.00,WNW,297,0.0,0.0,21,-99.99,,---,-99.99,VWS V14.01,2013-11-26 02:34:00,
2013-11-25 18:39:00,39.7,3.0,0.00,NNW,329,0.0,0.0,21,-99.99,,---,-99.99,VWS V14.01,2013-11-26 02:39:00,
2013-11-25 18:44:00,39.7,3.0,0.00,NNW,329,0.0,0.0,21,-99.99,,---,-99.99,VWS V14.01,2013-11-26 02:44:00,
2013-11-25 18:49:00,39.4,2.7,0.00,NNW,327,0.0,0.0,21,-99.99,,---,-99.99,VWS V14.01,2013-11-26 02:49:00,
2013-11-25 18:54:00,39.4,2.7,0.00,NNW,332,0.0,0.0,21,-99.99,,---,-99.99,VWS V14.01,2013-11-26 02:54:00,
2013-11-25 18:59:00,39.6,2.9,0.00,NNW,332,0.0,0.0,21,-99.99,,---,-99.99,VWS V14.01,2013-11-26 02:59:00,
2013-11-25 19:04:00,39.0,2.4,0.00,North,353,0.0,0.0,21,-99.99,,---,-99.99,VWS V14.01,2013-11-26 03:04:00,
2013-11-25 19:09:00,39.0,2.4,0.00,North,353,0.0,0.0,21,-99.99,,---,-99.99,VWS V14.01,2013-11-26 03:09:00,
2013-11-25 19:14:00,39.0,2.4,0.00,West,277,0.0,0.0,21,-99.99,,---,-99.99,VWS V14.01,2013-11-26 03:14:00,
2013-11-25 19:19:00,39.0,2.4,0.00,North,353,0.0,0.0,21,-99.99,,---,-99.99,VWS V14.01,2013-11-26 03:19:00,
2013-11-25 19:24:00,38.7,2.1,0.00,North,353,0.0,0.0,21,-99.99,,---,-99.99,VWS V14.01,2013-11-26 03:24:00,
2013-11-25 19:29:00,38.7,2.1,0.00,WNW,283,0.0,0.0,21,-99.99,,---,-99.99,VWS V14.01,2013-11-26 03:29:00,
2013-11-25 19:34:00,38.5,2.0,0.00,WNW,283,0.0,0.0,21,-99.99,,---,-99.99,VWS V14.01,2013-11-26 03:34:00,
2013-11-25 19:39:00,38.7,2.1,0.00,NNW,341,0.0,0.0,21,-99.99,,---,-99.99,VWS V14.01,2013-11-26 03:39:00,
2013-11-25 19:44:00,38.7,2.1,0.00,NNW,341,0.0,0.0,21,-99.99,,---,-99.99,VWS V14.01,2013-11-26 03:44:00,
2013-11-25 19:49:00,38.5,2.0,0.00,NNW,329,0.0,0.0,21,-99.99,,---,-99.99,VWS V14.01,2013-11-26 03:49:00,
2013-11-25 19:54:00,38.5,2.0,0.00,NNW,334,3.6,3.6,21,-99.99,,---,-99.99,VWS V14.01,2013-11-26 03:54:00,
2013-11-25 19:59:00,38.7,2.1,0.00,NNW,334,3.6,3.6,21,-99.99,,---,-99.99,VWS V14.01,2013-11-26 03:59:00,
2013-11-25 20:04:00,38.5,2.0,0.00,NNE,15,17.0,17.0,21,-99.99,,---,-99.99,VWS V14.01,2013-11-26 04:04:00,
2013-11-25 20:09:00,38.5,2.0,0.00,NNE,15,17.0,17.0,21,-99.99,,---,-99.99,VWS V14.01,2013-11-26 04:09:00,
2013-11-25 20:14:00,38.8,2.3,0.00,NNE,15,17.0,17.0,21,-99.99,,---,-99.99,VWS V14.01,2013-11-26 04:14:00,
2013-11-25 20:19:00,38.8,2.3,0.00,NNE,15,17.0,17.0,21,-99.99,,---,-99.99,VWS V14.01,2013-11-26 04:19:00,
2013-11-25 20:24:00,39.2,2.6,0.00,NNE,15,17.0,17.0,21,-99.99,,---,-99.99,VWS V14.01,2013-11-26 04:24:00,
2013-11-25 20:29:00,39.2,2.6,0.00,NNE,15,17.0,17.0,21,-99.99,,---,-99.99,VWS V14.01,2013-11-26 04:29:00,
2013-11-25 20:34:00,39.7,3.0,0.00,NNE,15,17.0,17.0,21,-99.99,,---,-99.99,VWS V14.01,2013-11-26 04:34:00,
2013-11-25 20:39:00,40.3,3.5,0.00,NNE,15,17.0,17.0,21,-99.99,,---,-99.99,VWS V14.01,2013-11-26 04:39:00,
2013-11-25 20:44:00,40.3,3.5,0.00,NNE,15,17.0,17.0,21,-99.99,,---,-99.99,VWS V14.01,2013-11-26 04:44:00,
2013-11-25 20:49:00,40.6,3.8,0.00,NNE,15,17.0,17.0,21,-99.99,,---,-99.99,VWS V14.01,2013-11-26 04:49:00,
2013-11-25 20:55:00,40.6,3.8,0.00,NNE,15,17.0,17.0,21,-99.99,,---,-99.99,VWS V14.01,2013-11-26 04:55:00,
2013-11-25 21:00:00,40.8,3.9,0.00,NNE,15,17.0,17.0,21,-99.99,,---,-99.99,VWS V14.01,2013-11-26 05:00:00,
2013-11-25 21:01:00,40.8,3.9,0.00,NNW,327,0.0,0.0,21,-99.99,,---,-99.99,VWS V14.01,2013-11-26 05:01:00,
2013-11-25 21:03:00,40.8,3.9,0.00,NNW,327,0.0,0.0,21,-99.99,,---,-99.99,VWS V14.01,2013-11-26 05:03:00,
2013-11-25 21:08:00,40.8,3.9,0.00,NNW,327,0.0,0.0,21,-99.99,,---,-99.99,VWS V14.01,2013-11-26 05:08:00,
2013-11-25 21:13:00,40.8,3.9,0.00,NNW,327,0.0,0.0,21,-99.99,,---,-99.99,VWS V14.01,2013-11-26 05:13:00,
2013-11-25 21:18:00,41.0,4.1,0.00,NNW,327,0.0,0.0,21,-99.99,,---,-99.99,VWS V14.01,2013-11-26 05:18:00,
2013-11-25 21:23:00,41.2,4.2,0.00,NNW,327,0.0,0.0,21,-99.99,,---,-99.99,VWS V14.01,2013-11-26 05:23:00,
2013-11-25 21:28:00,41.2,4.2,0.00,NNW,327,0.0,0.0,21,-99.99,,---,-99.99,VWS V14.01,2013-11-26 05:28:00,
2013-11-25 21:33:00,41.4,4.4,0.00,NNW,327,0.0,0.0,21,-99.99,,---,-99.99,VWS V14.01,2013-11-26 05:33:00,
2013-11-25 21:38:00,41.4,4.4,0.00,NNW,327,0.0,0.0,21,-99.99,,---,-99.99,VWS V14.01,2013-11-26 05:38:00,
2013-11-25 21:43:00,40.8,3.9,0.00,NNW,327,0.0,0.0,21,-99.99,,---,-99.99,VWS V14.01,2013-11-26 05:43:00,
2013-11-25 21:48:00,40.8,3.9,0.00,NNW,327,0.0,0.0,21,-99.99,,---,-99.99,VWS V14.01,2013-11-26 05:48:00,
2013-11-25 21:53:00,40.8,3.9,0.00,NNW,327,0.0,0.0,21,-99.99,,---,-99.99,VWS V14.01,2013-11-26 05:53:00,
2013-11-25 21:58:00,40.5,3.6,0.00,NNW,327,0.0,0.0,21,-99.99,,---,-99.99,VWS V14.01,2013-11-26 05:58:00,
2013-11-25 22:03:00,40.5,3.6,0.00,NNW,327,0.0,0.0,21,-99.99,,---,-99.99,VWS V14.01,2013-11-26 06:03:00,
2013-11-25 22:08:00,40.6,3.8,0.00,NNW,327,0.0,0.0,21,-99.99,,---,-99.99,VWS V14.01,2013-11-26 06:08:00,
2013-11-25 22:13:00,40.6,3.8,0.00,NNW,327,0.0,0.0,21,-99.99,,---,-99.99,VWS V14.01,2013-11-26 06:13:00,
2013-11-25 22:18:00,40.8,3.9,0.00,NNW,327,0.0,0.0,21,-99.99,,---,-99.99,VWS V14.01,2013-11-26 06:18:00,
2013-11-25 22:23:00,40.8,3.9,0.00,NNW,327,0.0,0.0,21,-99.99,,---,-99.99,VWS V14.01,2013-11-26 06:23:00,
2013-11-25 22:28:00,40.8,3.9,0.00,NNW,327,0.0,0.0,21,-99.99,,---,-99.99,VWS V14.01,2013-11-26 06:28:00,
2013-11-25 22:33:00,41.4,4.4,0.00,NNW,327,0.0,0.0,21,-99.99,,---,-99.99,VWS V14.01,2013-11-26 06:33:00,
2013-11-25 22:38:00,40.5,3.6,0.00,NNW,327,0.0,0.0,21,-99.99,,---,-99.99,VWS V14.01,2013-11-26 06:38:00,
2013-11-25 22:43:00,40.5,3.6,0.00,NNW,327,0.0,0.0,21,-99.99,,---,-99.99,VWS V14.01,2013-11-26 06:43:00,
2013-11-25 22:48:00,41.0,4.1,0.00,NNW,327,0.0,0.0,21,-99.99,,---,-99.99,VWS V14.01,2013-11-26 06:48:00,
2013-11-25 22:53:00,41.0,4.1,0.00,NNW,327,0.0,0.0,21,-99.99,,---,-99.99,VWS V14.01,2013-11-26 06:53:00,
2013-11-25 22:58:00,40.5,3.6,0.00,NNW,327,0.0,0.0,21,-99.99,,---,-99.99,VWS V14.01,2013-11-26 06:58:00,
2013-11-25 23:03:00,40.5,3.6,0.00,NNW,327,0.0,0.0,21,-99.99,,---,-99.99,VWS V14.01,2013-11-26 07:03:00,
2013-11-25 23:08:00,40.6,3.8,0.00,NNW,327,0.0,0.0,21,-99.99,,---,-99.99,VWS V14.01,2013-11-26 07:08:00,
2013-11-25 23:13:00,41.0,4.1,0.00,NNW,327,0.0,0.0,21,-99.99,,---,-99.99,VWS V14.01,2013-11-26 07:13:00,
2013-11-25 23:18:00,40.8,3.9,0.00,NNW,327,0.0,0.0,21,-99.99,,---,-99.99,VWS V14.01,2013-11-26 07:18:00,
2013-11-25 23:23:00,41.0,4.1,0.00,NNW,327,0.0,0.0,21,-99.99,,---,-99.99,VWS V14.01,2013-11-26 07:23:00,
2013-11-25 23:29:00,41.0,4.1,0.00,NNW,327,0.0,0.0,21,-99.99,,---,-99.99,VWS V14.01,2013-11-26 07:29:00,
2013-11-25 23:34:00,40.6,3.8,0.00,NNW,327,0.0,0.0,21,-99.99,,---,-99.99,VWS V14.01,2013-11-26 07:34:00,
2013-11-25 23:39:00,40.6,3.8,0.00,NNW,327,0.0,0.0,21,-99.99,,---,-99.99,VWS V14.01,2013-11-26 07:39:00,
2013-11-25 23:44:00,40.5,3.6,0.00,NNW,327,0.0,0.0,21,-99.99,,---,-99.99,VWS V14.01,2013-11-26 07:44:00,
2013-11-25 23:49:00,40.3,3.5,0.00,NNW,327,0.0,0.0,21,-99.99,,---,-99.99,VWS V14.01,2013-11-26 07:49:00,
2013-11-25 23:54:00,40.5,3.6,0.00,NNW,327,0.0,0.0,21,-99.99,,---,-99.99,VWS V14.01,2013-11-26 07:54:00,
2013-11-25 23:59:00,41.2,4.2,0.00,NNW,327,0.0,0.0,21,-99.99,,---,-99.99,VWS V14.01,2013-11-26 07:59:00,